This demonstration page uses our WeatherBlox Daily Observations layout. Learn more.

Left ArrowRight Arrow

39.01783, -85.05884

Hourly Observations for August 1, 2015

Temp ( °F °C ) Dew Point ( °F °C ) Humidity (%) Winds ( mph kmh ) Pressure ( in mb ) Visibility ( mi km ) Precip ( " mm )
12:52 am 00:52 Clear 71 21.7 61 16.1 71 71 W 7 11 29.96 1015 10 16.0934 N/A
1:52 am 01:52 Clear 69 20.6 61 16.1 76 76 W 3 6 29.97 1015 10 16.0934 N/A
2:52 am 02:52 Clear 68 20 61 16.1 78 78 W 7 11 29.96 1015 10 16.0934 N/A
3:52 am 03:52 Clear 67 19.4 60 15.6 79 79 W 3 6 29.96 1014 10 16.0934 N/A
4:52 am 04:52 Clear 64 17.8 60 15.6 87 87 W 5 7 29.95 1014 10 16.0934 N/A
5:52 am 05:52 Partly Cloudy 64 17.8 61 16.1 90 90 N N/A 29.95 1014 10 16.0934 N/A
6:52 am 06:52 Partly Cloudy 61 16.1 60 15.6 97 97 N N/A 29.96 1015 9 14.48406 N/A
7:52 am 07:52 Mostly Sunny 65 18.3 62 16.7 90 90 N N/A 29.97 1015 10 16.0934 N/A
8:52 am 08:52 Sunny 70 21.1 62 16.7 76 76 WNW 3 6 29.98 1015 10 16.0934 N/A
9:52 am 09:52 Mostly Sunny 75 23.9 61 16.1 62 62 N N/A 29.99 1016 10 16.0934 N/A
10:52 am 10:52 Sunny 79 26.1 58 14.4 49 49 NNW 9 15 29.99 1016 10 16.0934 N/A
11:52 am 11:52 Mostly Sunny 80 26.7 56 13.3 44 44 N 9 15 30 1016 10 16.0934 N/A
12:52 pm 12:52 Partly Cloudy 81 27.2 53 11.7 38 38 VRB 5 7 29.99 1016 10 16.0934 N/A
1:52 pm 13:52 Partly Cloudy 82 27.8 56 13.3 41 41 VRB 5 7 29.98 1015 10 16.0934 N/A
2:52 pm 14:52 Partly Cloudy 83 28.3 56 13.3 40 40 NNW 10 17 29.96 1015 10 16.0934 N/A
3:52 pm 15:52 Mostly Cloudy 83 28.3 57 13.9 41 41 NNW 8 13 29.96 1015 10 16.0934 N/A
4:52 pm 16:52 Mostly Cloudy 83 28.3 56 13.3 40 40 NNW 9 15 29.96 1015 10 16.0934 N/A
5:52 pm 17:52 Mostly Cloudy 81 27.2 56 13.3 42 42 NNW 8 13 29.96 1014 10 16.0934 N/A
6:52 pm 18:52 Partly Cloudy 81 27.2 56 13.3 42 42 NNW 9 15 29.96 1014 10 16.0934 N/A
7:52 pm 19:52 Partly Cloudy 82 28 59 15 45 45 W 5 7 29.91 1013 10 16.0934 N/A
8:52 pm 20:52 Partly Cloudy 76 24.4 57 13.9 52 52 WNW 5 7 29.96 1014 10 16.0934 N/A
9:52 pm 21:52 Mostly Clear 71 21.7 60 15.6 68 68 WSW 3 6 29.97 1015 10 16.0934 N/A
10:52 pm 22:52 Clear 69 20.6 58 14.4 68 68 W 5 7 29.97 1015 10 16.0934 N/A
11:52 pm 23:52 Partly Cloudy 70 21.1 58 14.4 66 66 W 5 7 29.97 1015 10 16.0934 N/A

Powered by AerisWeather